Location: York
(31.8935°S, 116.7682°E)
Time: 16:38:15
(UTC+08:00)

Transit 4A - Visible Passes

Search period start: 25 September 2022 00:00
Search period end: 05 October 2022 00:00
Orbit: 869 x 975 km, 66.8° (Epoch: 24 September)

Date Brightness Start Highest point End Pass type
(mag) Time Alt. Az. Time Alt. Az. Time Alt. Az.
25 Sep 9.3 20:14:11 10° S 20:18:06 25° SE 20:18:06 25° SE visible
25 Sep 10.2 21:59:57 10° SW 22:01:38 19° SW 22:01:38 19° SW visible
26 Sep 8.9 20:22:59 10° S 20:27:33 35° SSE 20:27:33 35° SSE visible
26 Sep 10.4 22:09:42 10° SW 22:11:04 16° WSW 22:11:04 16° WSW visible
27 Sep 8.4 20:31:58 10° SSW 20:37:02 50° SSE 20:37:02 50° SSE visible
27 Sep 10.6 22:19:54 10° WSW 22:20:35 12° WSW 22:20:35 12° WSW visible
28 Sep 9.7 18:57:10 10° SSE 19:00:24 14° SE 19:03:04 11° ESE visible
28 Sep 8.2 20:41:08 10° SSW 20:46:37 67° SSW 20:46:37 67° SSW visible
29 Sep 9.3 19:05:19 10° S 19:10:01 21° SE 19:12:43 16° E visible
29 Sep 8.4 20:50:28 10° SSW 20:56:16 59° W 20:56:16 59° W visible
30 Sep 8.9 19:13:56 10° S 19:19:32 30° ESE 19:22:27 22° E visible
30 Sep 9.0 21:00:01 10° SW 21:05:55 39° WNW 21:06:00 39° WNW visible
01 Oct 8.4 19:22:49 10° SSW 19:28:57 45° ESE 19:32:17 25° ENE visible
01 Oct 9.7 21:09:54 10° SW 21:14:58 25° WNW 21:15:51 24° WNW visible
02 Oct 8.0 19:31:51 10° SSW 19:38:16 68° ESE 19:42:14 24° NE visible
02 Oct 10.2 21:20:23 10° WSW 21:23:57 16° WNW 21:25:49 14° WNW visible
03 Oct 8.1 19:41:05 10° SSW 19:47:31 80° WNW 19:52:19 19° NNE visible
04 Oct 8.7 19:50:29 10° SW 19:56:41 52° WNW 20:02:32 11° N visible
